AirNav   Phillips 66 Aviation Fuel
 
 412 users online  

M34 Kentucky Dam State Park Airport
Gilbertsville, Kentucky, USA

GOING TO GILBERTSVILLE?


FAA INFORMATION EFFECTIVE 16 AUGUST 2018

Location

FAA Identifier: M34
Lat/Long: 37-00-35.2460N / 088-17-57.8502W
37-00.587433N / 088-17.964170W
37.0097906 / -88.2994028
(estimated)
Elevation: 350.8 ft. / 106.9 m (surveyed)
Variation: 03W (2020)
From city: 1 mile NW of GILBERTSVILLE, KY
Time zone: UTC -5 (UTC -6 during Standard Time)
Zip code: 42044

Airport Operations

Airport use: Open to the public
Activation date: 10/1948
Control tower: no
ARTCC: MEMPHIS CENTER
FSS: LOUISVILLE FLIGHT SERVICE STATION
NOTAMs facility: LOU (NOTAM-D service available)
Attendance: UNATNDD
Wind indicator: lighted
Segmented circle: yes
Lights: ACTVT REIL RWY 10 & 28; PAPI RWY 10 & 28; MIRL RWY 10/28 - CTAF.
Beacon: white-green (lighted land airport)
Operates sunset to sunrise.

Airport Communications

CTAF/UNICOM: 123.0
WX AWOS-3 at M25 (20 nm SW): 120.625 (270-247-2094)

Nearby radio navigation aids

VOR radial/distance  VOR name  Freq  Var
CNGr087/25.8CUNNINGHAM VOR/DME113.1003E

Airport Services

Parking: tiedowns
Airframe service: NONE
Powerplant service: NONE
Bottled oxygen: NONE
Bulk oxygen: NONE

Runway Information

Runway 10/28

Dimensions: 4005 x 100 ft. / 1221 x 30 m
Surface: asphalt, in good condition
Weight bearing capacity: 
Single wheel: 12.5
Runway edge lights: medium intensity
RUNWAY 10  RUNWAY 28
Latitude: 37-00.640533N37-00.534333N
Longitude: 088-18.370300W088-17.558040W
Elevation: 348.6 ft.350.7 ft.
Gradient: 0.3%0.3%
Traffic pattern: leftleft
Markings: nonprecision, in good conditionnonprecision, in good condition
Visual slope indicator: 2-light PAPI on left (4.00 degrees glide path)2-light PAPI on left (4.00 degrees glide path)
Runway end identifier lights: yesyes
Touchdown point: yes, no lightsyes, no lights
Obstructions: 60 ft. trees, 1875 ft. from runway, 48 ft. left of centerline, 27:1 slope to clear34 ft. trees, 480 ft. from runway, 88 ft. left of centerline, 8:1 slope to clear

Airport Ownership and Management from official FAA records

Ownership: Publicly-owned
Owner: KENTUCKY DEPT. OF PARKS
CAPITAL PLAZA TOWER
FRANKFORT, KY 40601
Phone 502-564-2172
Manager: DAVID ELLIOTT
861 E. 5TH AVE
CALVERT CITY, KY 42029
Phone (270) 395-4545

Airport Operational Statistics

Aircraft based on the field: 9
Single engine airplanes: 9
    
Aircraft operations: avg 44/day *
69% transient general aviation
19% military
9% local general aviation
3% air taxi
* for 12-month period ending 11 October 2016

Additional Remarks

DEER AND LARGE FLOCKS OF GEESE ON AND INVOF ARPT.
TRANSPORTATION TO PARK LODGE AVAIL 270-362-4271.

Instrument Procedures

There are no published instrument procedures at M34.

Some nearby airports with instrument procedures:

M25 - Mayfield Graves County Airport (20 nm SW)
KCEY - Kyle-Oakley Field Airport (21 nm S)
5M9 - Marion-Crittenden County Airport (22 nm NE)
2M0 - Princeton-Caldwell County Airport (22 nm E)
KPAH - Barkley Regional Airport (23 nm W)
 
Loc | Ops | Rwys | IFR | FBO | Links
Com | Nav | Svcs | Stats | Notes


 
Area around M34 (Kentucky Dam State Park Airport)
 
Road maps at: MapQuest Bing Google
 
Aerial photo
WARNING: Photo may not be current or correct
Aerial photo of M34 (Kentucky Dam State Park Airport)
Photo by Brandon Tanner
Photo taken 02-Apr-2015
looking east.

Do you have a better or more recent aerial photo of Kentucky Dam State Park Airport that you would like to share? If so, please send us your photo.

 
Sectional chart

 
Airport distance calculator
Flying to Kentucky Dam State Park Airport? Find the distance to fly.

From to M34

Sunrise and sunset
Times for 17-Aug-2018
 Local
(UTC-5)
 Zulu
(UTC)
Morning civil twilight05:4510:45
Sunrise06:1311:13
Sunset19:4200:42
Evening civil twilight20:0901:09

Current date and time
Zulu (UTC)  17-Aug-2018 07:18:57
Local (UTC-5)  17-Aug-2018 02:18:57
 
METAR
KM25 
20nm SW 
170655Z AUTO 19007KT 10SM CLR 25/23 A3001 RMK AO2 PWINO
KCEY 
21nm S 
170655Z AUTO 19009G14KT 10SM CLR 24/24 A3000 RMK AO1
K5M9 
22nm NE 
170655Z AUTO 21005KT 10SM BKN042 BKN047 BKN060 24/24 A3000 RMK AO2 T02430237
KPAH 
23nm W 
170653Z 21009KT 10SM CLR 25/21 A2998 RMK AO2 LTG DSNT E SLP149 T02500206
KM30 
24nm NW 
170655Z AUTO 21006KT 5SM HZ CLR 26/22 A2999 RMK AO2 LTG DSNT W P0001 T02550222
TAF
KPAH 
23nm W 
170527Z 1706/1806 20006KT P6SM VCTS SCT035CB BKN150 TEMPO 1706/1707 -SHRA BKN040 FM170900 22007KT 6SM -SHRA BKN025 OVC040 FM171000 23006KT P6SM VCTS SCT015CB BKN030 FM171100 24006KT P6SM VCTS SCT045CB BKN100
NOTAMs
Click for the latest NOTAMs
NOTAMs are issued by the DoD/FAA and will open in a separate window not controlled by AirNav.

 

 
 

FBO, Fuel Providers, and Aircraft Ground Support

  
 Business Name 
 
 Contact 
 
 Services / Description 
 
Fuel Prices
 
Comments
  
Kentucky Dam Village State Resort Park 270-362-4271
toll-free 1-800-325-0146
[web site]

Like us on facebook Follow us on twitter
Aircraft parking (ramp or tiedown), Passenger terminal and lounge, Courtesy transportation, Pilots lounge / snooze room, Public telephone, Restrooms, Showers, Lodging, ...
 
Courtesy shuttle  
 
More info about Kentucky Dam Village State Resort Park
no fuel
 
   5 read write
Update Fuel Prices
 

Would you like to see your business listed on this page?

 If your business provides an interesting product or service to pilots, flight crews, aircraft, or users of the Kentucky Dam State Park Airport, you should consider listing it here.  To start the listing process, click on the button below
 
Add a business
 

Other Pages about Kentucky Dam State Park Airport

Update a link
 
Copyright © AirNav, LLC. All rights reserved. Privacy Policy  Contact